Location: Diguira
(13.1838°N, 4.9109°W)
Time: 17:09:00
(UTC+00:00)

GP-B - Pass Details

Date: 18 September 2020
Orbit: 631 x 635 km, 89.8° (Epoch: 24 October)

Event Time Altitude Azimuth Distance (km) Brightness Sun altitude
Rises 18:27:24 0° 12° (NNE) 2,917 6.4 -3.0°
Reaches altitude 10° 18:29:41 10° 18° (NNE) 2,008 5.5 -3.6°
Maximum altitude 18:33:56 47° 92° (E) 835 3.3 -4.6°
Drops below altitude 10° 18:38:11 10° 167° (SSE) 2,005 5.5 -5.7°
Sets 18:40:27 0° 172° (S) 2,911 6.4 -6.2°
